User: anonymous   Login
Location: Unspecified
(0.0000°N, 0.0000°E)
Time: 22:26:47
(UTC+00:00)
Language:

TBA - TO BE ASSIGNED - Orbit

View from above orbital plane
View from above orbital plane
View from above satellite
View from above satellite

Ground track
Ground track

The orbit is defined by the following mean orbital elements,

1 68742U          26145.58335647 +.00000000 +00000-0 -24948-1 0 00008
2 68742  97.2845   9.2760 0001567  77.7970 344.6249 15.60940773    08
Epoch (UTC): 25 May 2026 14:00:01
Eccentricity: 0.0001567
inclination: 97.2845°
perigee height: 384 km
apogee height: 386 km
right ascension of ascending node: 9.2760°
argument of perigee: 77.7970°
revolutions per day: 15.60940773
mean anomaly at epoch: 344.6249°

The dashed part of the orbit path shows where the satellite is in the earth's shadow,  

DLR